Time,TemperatureF,DewpointF,PressureIn,WindDirection,WindDirectionDegrees,WindSpeedMPH,WindSpeedGustMPH,Humidity,HourlyPrecipIn,Conditions,Clouds,dailyrainin,SoftwareType,DateUTC
2013-11-04 00:00:00,38.1,31.8,30.33,SE,125,9.6,9.6,78,0.00,,---,0.00,VWS V14.01,2013-11-04 05:00:00,
2013-11-04 00:01:00,38.1,31.8,30.33,SE,125,2.3,3.6,78,0.00,,---,0.00,VWS V14.01,2013-11-04 05:01:00,
2013-11-04 00:02:00,38.1,31.8,30.33,ESE,102,9.3,9.3,78,0.00,,---,0.00,VWS V14.01,2013-11-04 05:02:00,
2013-11-04 00:03:00,38.1,31.8,30.33,SE,125,4.3,9.3,78,0.00,,---,0.00,VWS V14.01,2013-11-04 05:03:00,
2013-11-04 00:05:00,38.1,31.8,30.33,East,80,7.9,7.9,78,0.00,,---,0.00,VWS V14.01,2013-11-04 05:05:00,
2013-11-04 00:08:00,38.1,31.8,30.33,SE,125,6.0,6.0,78,0.00,,---,0.00,VWS V14.01,2013-11-04 05:08:00,
2013-11-04 00:13:00,38.1,31.8,30.33,East,80,8.6,8.6,78,0.00,,---,0.00,VWS V14.01,2013-11-04 05:13:00,
2013-11-04 00:18:00,37.9,31.6,30.33,West,260,10.9,10.9,78,0.00,,---,0.00,VWS V14.01,2013-11-04 05:18:00,
2013-11-04 00:20:00,37.9,31.6,30.33,South,170,10.6,10.9,78,0.00,,---,0.00,VWS V14.01,2013-11-04 05:20:00,
2013-11-04 00:25:00,37.9,31.6,30.33,South,170,4.6,7.0,78,0.00,,---,0.00,VWS V14.01,2013-11-04 05:25:00,
2013-11-04 00:30:00,37.9,31.6,30.33,East,80,4.0,4.0,78,0.00,,---,0.00,VWS V14.01,2013-11-04 05:30:00,
2013-11-04 00:35:00,37.9,32.0,30.33,SE,125,8.6,8.6,79,0.00,,---,0.00,VWS V14.01,2013-11-04 05:35:00,
2013-11-04 00:40:00,37.9,32.0,30.33,East,80,11.9,11.9,79,0.00,,---,0.00,VWS V14.01,2013-11-04 05:40:00,
2013-11-04 00:45:00,37.7,31.5,30.33,SE,125,4.6,19.2,78,0.00,,---,0.00,VWS V14.01,2013-11-04 05:45:00,
2013-11-04 00:50:00,37.5,31.6,30.33,NE,35,6.0,6.0,79,0.00,,---,0.00,VWS V14.01,2013-11-04 05:50:00,
2013-11-04 00:55:00,37.5,31.6,30.33,South,170,7.9,16.6,79,0.00,,---,0.00,VWS V14.01,2013-11-04 05:55:00,
2013-11-04 01:00:00,37.7,31.8,30.33,SE,125,3.0,3.0,79,0.00,,---,0.00,VWS V14.01,2013-11-04 06:00:00,
2013-11-04 01:05:00,37.7,31.8,30.33,SE,125,5.0,7.9,79,0.00,,---,0.00,VWS V14.01,2013-11-04 06:05:00,
2013-11-04 01:10:00,37.7,32.1,30.33,SE,125,8.9,8.9,80,0.00,,---,0.00,VWS V14.01,2013-11-04 06:10:00,
2013-11-04 01:15:00,37.5,31.9,30.33,South,170,4.6,8.3,80,0.00,,---,0.00,VWS V14.01,2013-11-04 06:15:00,
2013-11-04 01:20:00,37.5,31.9,30.33,East,80,3.0,3.0,80,0.00,,---,0.00,VWS V14.01,2013-11-04 06:20:00,
2013-11-04 01:25:00,37.7,32.1,30.33,SE,125,8.9,8.9,80,0.00,,---,0.00,VWS V14.01,2013-11-04 06:25:00,
2013-11-04 01:30:00,37.7,32.1,30.33,SE,125,4.6,4.6,80,0.00,,---,0.00,VWS V14.01,2013-11-04 06:30:00,
2013-11-04 01:35:00,37.7,32.1,30.33,ESE,102,5.0,7.3,80,0.00,,---,0.00,VWS V14.01,2013-11-04 06:35:00,
2013-11-04 01:40:00,37.7,32.4,30.33,SE,125,4.0,4.0,81,0.00,,---,0.00,VWS V14.01,2013-11-04 06:40:00,
2013-11-04 01:45:00,37.5,31.9,30.33,East,80,7.0,7.0,80,0.00,,---,0.00,VWS V14.01,2013-11-04 06:45:00,
2013-11-04 01:50:00,37.7,32.1,30.33,SE,125,5.3,5.3,80,0.00,,---,0.00,VWS V14.01,2013-11-04 06:50:00,
2013-11-04 01:55:00,37.7,32.4,30.33,South,170,4.3,4.3,81,0.00,,---,0.00,VWS V14.01,2013-11-04 06:55:00,
2013-11-04 02:00:00,37.7,32.4,30.33,SE,125,2.3,4.3,81,0.00,,---,0.00,VWS V14.01,2013-11-04 07:00:00,
2013-11-04 02:05:00,37.7,32.4,30.33,East,80,4.6,5.6,81,0.00,,---,0.00,VWS V14.01,2013-11-04 07:05:00,
2013-11-04 02:10:00,37.7,32.4,30.33,SE,125,4.6,4.6,81,0.00,,---,0.00,VWS V14.01,2013-11-04 07:10:00,
2013-11-04 02:15:00,37.9,32.3,30.33,East,80,7.3,7.3,80,0.00,,---,0.00,VWS V14.01,2013-11-04 07:15:00,
2013-11-04 02:20:00,37.7,32.1,30.33,SE,125,6.0,6.0,80,0.00,,---,0.00,VWS V14.01,2013-11-04 07:20:00,
2013-11-04 02:25:00,37.7,32.1,30.33,East,80,9.9,9.9,80,0.00,,---,0.00,VWS V14.01,2013-11-04 07:25:00,
2013-11-04 02:30:00,37.5,31.9,30.33,ENE,58,3.0,3.6,80,0.00,,---,0.00,VWS V14.01,2013-11-04 07:30:00,
2013-11-04 02:36:00,37.5,31.9,30.33,East,80,4.6,5.3,80,0.00,,---,0.00,VWS V14.01,2013-11-04 07:36:00,
2013-11-04 02:41:00,37.5,31.9,30.33,ESE,102,7.9,7.9,80,0.00,,---,0.00,VWS V14.01,2013-11-04 07:41:00,
2013-11-04 02:46:00,37.7,32.1,30.33,South,170,6.0,7.3,80,0.00,,---,0.00,VWS V14.01,2013-11-04 07:46:00,
2013-11-04 02:51:00,37.7,32.1,30.33,ESE,102,5.6,8.9,80,0.00,,---,0.00,VWS V14.01,2013-11-04 07:51:00,
2013-11-04 02:56:00,37.7,31.8,30.33,SE,125,9.3,9.3,79,0.00,,---,0.00,VWS V14.01,2013-11-04 07:56:00,
2013-11-04 03:01:00,37.7,31.8,30.33,ESE,102,7.3,7.9,79,0.00,,---,0.00,VWS V14.01,2013-11-04 08:01:00,
2013-11-04 03:06:00,37.7,31.8,30.33,South,170,5.0,5.0,79,0.00,,---,0.00,VWS V14.01,2013-11-04 08:06:00,
2013-11-04 03:11:00,37.7,31.8,30.33,SE,125,5.6,7.3,79,0.00,,---,0.00,VWS V14.01,2013-11-04 08:11:00,
2013-11-04 03:16:00,37.7,31.8,30.33,SE,125,6.6,6.6,79,0.00,,---,0.00,VWS V14.01,2013-11-04 08:16:00,
2013-11-04 03:21:00,37.9,32.0,30.33,East,80,11.9,11.9,79,0.00,,---,0.00,VWS V14.01,2013-11-04 08:21:00,
2013-11-04 03:26:00,37.9,31.6,30.33,SE,125,4.3,4.3,78,0.00,,---,0.00,VWS V14.01,2013-11-04 08:26:00,
2013-11-04 03:31:00,37.9,31.6,30.33,SE,125,8.3,8.3,78,0.00,,---,0.00,VWS V14.01,2013-11-04 08:31:00,
2013-11-04 03:36:00,37.9,31.6,30.33,East,80,3.6,3.6,78,0.00,,---,0.00,VWS V14.01,2013-11-04 08:36:00,
2013-11-04 03:41:00,37.9,31.6,30.33,SE,125,11.3,11.3,78,0.00,,---,0.00,VWS V14.01,2013-11-04 08:41:00,
2013-11-04 03:46:00,37.7,31.5,30.33,NE,35,3.6,12.9,78,0.00,,---,0.00,VWS V14.01,2013-11-04 08:46:00,
2013-11-04 03:51:00,37.7,31.5,30.33,SE,125,8.6,8.9,78,0.00,,---,0.00,VWS V14.01,2013-11-04 08:51:00,
2013-11-04 03:56:00,37.7,31.5,30.33,South,170,7.3,7.3,78,0.00,,---,0.00,VWS V14.01,2013-11-04 08:56:00,
2013-11-04 04:01:00,37.7,31.5,30.33,SE,125,5.0,11.3,78,0.00,,---,0.00,VWS V14.01,2013-11-04 09:01:00,
2013-11-04 04:06:00,37.7,31.5,30.33,South,170,4.0,4.6,78,0.00,,---,0.00,VWS V14.01,2013-11-04 09:06:00,
2013-11-04 04:11:00,37.5,31.3,30.33,SE,125,9.9,9.9,78,0.00,,---,0.00,VWS V14.01,2013-11-04 09:11:00,
2013-11-04 04:16:00,37.7,31.5,30.33,NE,35,5.6,5.6,78,0.00,,---,0.00,VWS V14.01,2013-11-04 09:16:00,
2013-11-04 04:21:00,37.7,31.5,30.33,ESE,102,15.6,15.6,78,0.00,,---,0.00,VWS V14.01,2013-11-04 09:21:00,
2013-11-04 04:26:00,37.7,31.1,30.33,East,80,7.0,7.0,77,0.00,,---,0.00,VWS V14.01,2013-11-04 09:26:00,
2013-11-04 04:31:00,37.7,31.1,30.33,SE,125,5.6,14.9,77,0.00,,---,0.00,VWS V14.01,2013-11-04 09:31:00,
2013-11-04 04:36:00,37.5,31.0,30.33,ESE,102,9.6,9.6,77,0.00,,---,0.00,VWS V14.01,2013-11-04 09:36:00,
2013-11-04 04:41:00,37.5,31.0,30.33,South,170,8.9,14.6,77,0.00,,---,0.00,VWS V14.01,2013-11-04 09:41:00,
2013-11-04 04:46:00,37.5,31.0,30.33,SE,125,9.3,9.3,77,0.00,,---,0.00,VWS V14.01,2013-11-04 09:46:00,
2013-11-04 04:51:00,37.5,31.0,30.33,South,170,6.3,7.3,77,0.00,,---,0.00,VWS V14.01,2013-11-04 09:51:00,
2013-11-04 04:56:00,37.5,31.0,30.33,SE,125,10.9,10.9,77,0.00,,---,0.00,VWS V14.01,2013-11-04 09:56:00,
2013-11-04 05:01:00,37.7,31.1,30.33,SE,125,9.6,9.6,77,0.00,,---,0.00,VWS V14.01,2013-11-04 10:01:00,
2013-11-04 05:06:00,37.5,31.0,30.33,South,170,2.3,4.0,77,0.00,,---,0.00,VWS V14.01,2013-11-04 10:06:00,
2013-11-04 05:11:00,37.5,31.0,30.33,SE,125,2.3,5.0,77,0.00,,---,0.00,VWS V14.01,2013-11-04 10:11:00,
2013-11-04 05:16:00,37.5,31.0,30.33,ESE,102,7.9,7.9,77,0.00,,---,0.00,VWS V14.01,2013-11-04 10:16:00,
2013-11-04 05:21:00,37.5,31.0,30.33,SE,125,4.0,14.6,77,0.00,,---,0.00,VWS V14.01,2013-11-04 10:21:00,
2013-11-04 05:26:00,37.5,31.0,30.33,SE,125,9.6,9.6,77,0.00,,---,0.00,VWS V14.01,2013-11-04 10:26:00,
2013-11-04 05:32:00,37.5,30.7,30.33,SE,125,7.9,7.9,76,0.00,,---,0.00,VWS V14.01,2013-11-04 10:32:00,
2013-11-04 05:37:00,37.5,30.7,30.33,SE,125,3.0,3.0,76,0.00,,---,0.00,VWS V14.01,2013-11-04 10:37:00,
2013-11-04 05:42:00,37.5,31.0,30.33,ESE,102,19.2,19.2,77,0.00,,---,0.00,VWS V14.01,2013-11-04 10:42:00,
2013-11-04 05:47:00,37.5,30.7,30.33,SE,125,6.3,6.3,76,0.00,,---,0.00,VWS V14.01,2013-11-04 10:47:00,
2013-11-04 05:52:00,37.3,30.5,30.33,SE,125,9.3,9.3,76,0.00,,---,0.00,VWS V14.01,2013-11-04 10:52:00,
2013-11-04 05:57:00,37.3,30.5,30.33,South,170,5.6,9.3,76,0.00,,---,0.00,VWS V14.01,2013-11-04 10:57:00,
2013-11-04 06:02:00,37.2,30.3,30.33,SE,125,1.7,8.9,76,0.00,,---,0.00,VWS V14.01,2013-11-04 11:02:00,
2013-11-04 06:07:00,37.2,30.3,30.33,East,80,4.6,4.6,76,0.00,,---,0.00,VWS V14.01,2013-11-04 11:07:00,
2013-11-04 06:12:00,37.0,30.1,30.33,East,80,4.0,11.3,76,0.00,,---,0.00,VWS V14.01,2013-11-04 11:12:00,
2013-11-04 06:14:00,37.0,30.1,30.33,South,170,3.6,7.9,76,0.00,,---,0.00,VWS V14.01,2013-11-04 11:14:00,
2013-11-04 06:19:00,37.0,30.1,30.33,SE,125,7.0,7.0,76,0.00,,---,0.00,VWS V14.01,2013-11-04 11:19:00,
2013-11-04 06:22:00,37.0,30.5,30.33,ESE,102,6.3,6.3,77,0.00,,---,0.00,VWS V14.01,2013-11-04 11:22:00,
2013-11-04 06:27:00,37.0,30.5,30.33,SE,125,11.3,11.3,77,0.00,,---,0.00,VWS V14.01,2013-11-04 11:27:00,
2013-11-04 06:32:00,36.8,30.3,30.33,SE,125,3.6,3.6,77,0.00,,---,0.00,VWS V14.01,2013-11-04 11:32:00,
2013-11-04 06:37:00,37.0,30.5,30.33,SE,125,11.6,11.6,77,0.00,,---,0.00,VWS V14.01,2013-11-04 11:37:00,
2013-11-04 06:42:00,36.8,30.3,30.33,SE,125,4.6,4.6,77,0.00,,---,0.00,VWS V14.01,2013-11-04 11:42:00,
2013-11-04 06:47:00,37.0,30.5,30.33,SE,125,7.9,7.9,77,0.00,,---,0.00,VWS V14.01,2013-11-04 11:47:00,
2013-11-04 06:52:00,36.8,30.3,30.33,SE,125,9.6,9.6,77,0.00,,---,0.00,VWS V14.01,2013-11-04 11:52:00,
2013-11-04 06:57:00,36.8,30.3,30.33,East,80,6.0,6.0,77,0.00,,---,0.00,VWS V14.01,2013-11-04 11:57:00,
2013-11-04 07:02:00,36.8,30.3,30.33,South,170,6.3,6.3,77,0.00,,---,0.00,VWS V14.01,2013-11-04 12:02:00,
2013-11-04 07:07:00,37.0,30.5,30.33,SE,125,8.9,8.9,77,0.00,,---,0.00,VWS V14.01,2013-11-04 12:07:00,
2013-11-04 07:12:00,37.0,30.5,30.33,SE,125,12.9,12.9,77,0.00,,---,0.00,VWS V14.01,2013-11-04 12:12:00,
2013-11-04 07:17:00,37.0,30.5,30.33,SE,125,1.7,8.9,77,0.00,,---,0.00,VWS V14.01,2013-11-04 12:17:00,
2013-11-04 07:22:00,37.0,30.5,30.33,SE,125,8.9,12.9,77,0.00,,---,0.00,VWS V14.01,2013-11-04 12:22:00,
2013-11-04 07:27:00,37.0,30.5,30.33,ESE,102,2.3,7.3,77,0.00,,---,0.00,VWS V14.01,2013-11-04 12:27:00,
2013-11-04 07:32:00,37.0,30.5,30.33,ESE,102,2.3,2.3,77,0.00,,---,0.00,VWS V14.01,2013-11-04 12:32:00,
2013-11-04 07:37:00,37.0,30.5,30.33,ESE,102,2.3,2.3,77,0.00,,---,0.00,VWS V14.01,2013-11-04 12:37:00,
2013-11-04 07:42:00,37.0,30.5,30.33,ESE,102,2.3,2.3,77,0.00,,---,0.00,VWS V14.01,2013-11-04 12:42:00,
2013-11-04 07:47:00,37.0,30.5,30.33,ESE,102,2.3,2.3,77,0.00,,---,0.00,VWS V14.01,2013-11-04 12:47:00,
2013-11-04 07:52:00,37.0,30.5,30.30,ESE,102,2.3,2.3,77,0.00,,---,0.00,VWS V14.01,2013-11-04 12:52:00,
2013-11-04 07:57:00,37.0,30.1,30.30,ESE,102,2.3,2.3,76,0.00,,---,0.00,VWS V14.01,2013-11-04 12:57:00,
2013-11-04 08:02:00,37.0,30.5,30.30,ESE,102,2.3,2.3,77,0.00,,---,0.00,VWS V14.01,2013-11-04 13:02:00,
2013-11-04 08:07:00,37.0,30.5,30.33,ESE,102,2.3,2.3,77,0.00,,---,0.00,VWS V14.01,2013-11-04 13:07:00,
2013-11-04 08:12:00,37.2,30.6,30.33,ESE,102,2.3,2.3,77,0.00,,---,0.00,VWS V14.01,2013-11-04 13:12:00,
2013-11-04 08:17:00,37.3,30.5,30.33,ESE,102,2.3,2.3,76,0.00,,---,0.00,VWS V14.01,2013-11-04 13:17:00,
2013-11-04 08:22:00,37.5,30.7,30.33,ESE,102,2.3,2.3,76,0.00,,---,0.00,VWS V14.01,2013-11-04 13:22:00,
2013-11-04 08:28:00,37.5,30.7,30.33,ESE,102,2.3,2.3,76,0.00,,---,0.00,VWS V14.01,2013-11-04 13:28:00,
2013-11-04 08:33:00,37.7,30.8,30.33,ESE,102,2.3,2.3,76,0.00,,---,0.00,VWS V14.01,2013-11-04 13:33:00,
2013-11-04 08:38:00,37.9,31.0,30.33,ESE,102,2.3,2.3,76,0.00,,---,0.00,VWS V14.01,2013-11-04 13:38:00,
2013-11-04 08:43:00,38.2,31.0,30.33,ESE,102,2.3,2.3,75,0.00,,---,0.00,VWS V14.01,2013-11-04 13:43:00,
2013-11-04 08:48:00,38.8,31.2,30.33,ESE,102,2.3,2.3,74,0.00,,---,0.00,VWS V14.01,2013-11-04 13:48:00,
2013-11-04 08:53:00,39.3,31.7,30.30,ESE,102,2.3,2.3,74,0.00,,---,0.00,VWS V14.01,2013-11-04 13:53:00,
2013-11-04 08:58:00,39.7,31.4,30.30,ESE,102,2.3,2.3,72,0.00,,---,0.00,VWS V14.01,2013-11-04 13:58:00,
2013-11-04 09:03:00,39.7,31.1,30.30,ESE,102,2.3,2.3,71,0.00,,---,0.00,VWS V14.01,2013-11-04 14:03:00,
2013-11-04 09:08:00,39.7,31.8,30.30,ESE,102,2.3,2.3,73,0.00,,---,0.00,VWS V14.01,2013-11-04 14:08:00,
2013-11-04 09:13:00,39.7,31.4,30.30,ESE,102,2.3,2.3,72,0.00,,---,0.00,VWS V14.01,2013-11-04 14:13:00,
2013-11-04 09:18:00,39.9,31.2,30.30,ESE,102,2.3,2.3,71,0.00,,---,0.00,VWS V14.01,2013-11-04 14:18:00,
2013-11-04 09:23:00,40.2,31.2,30.30,ESE,102,2.3,2.3,70,0.00,,---,0.00,VWS V14.01,2013-11-04 14:23:00,
2013-11-04 09:28:00,40.4,31.4,30.30,ESE,102,2.3,2.3,70,0.00,,---,0.00,VWS V14.01,2013-11-04 14:28:00,
2013-11-04 09:33:00,40.4,31.0,30.30,ESE,102,2.3,2.3,69,0.00,,---,0.00,VWS V14.01,2013-11-04 14:33:00,
2013-11-04 09:38:00,40.4,31.0,30.30,ESE,102,2.3,2.3,69,0.00,,---,0.00,VWS V14.01,2013-11-04 14:38:00,
2013-11-04 09:43:00,40.6,31.2,30.30,ESE,102,2.3,2.3,69,0.00,,---,0.00,VWS V14.01,2013-11-04 14:43:00,
2013-11-04 09:48:00,40.6,31.2,30.30,ESE,102,2.3,2.3,69,0.00,,---,0.00,VWS V14.01,2013-11-04 14:48:00,
2013-11-04 09:53:00,40.8,31.0,30.30,ESE,102,2.3,2.3,68,0.00,,---,0.00,VWS V14.01,2013-11-04 14:53:00,
2013-11-04 09:58:00,40.9,30.8,30.30,ESE,102,2.3,2.3,67,0.00,,---,0.00,VWS V14.01,2013-11-04 14:58:00,
2013-11-04 10:03:00,41.1,31.0,30.30,ESE,102,2.3,2.3,67,0.00,,---,0.00,VWS V14.01,2013-11-04 15:03:00,
2013-11-04 10:08:00,41.7,31.2,30.30,ESE,102,2.3,2.3,66,0.00,,---,0.00,VWS V14.01,2013-11-04 15:08:00,
2013-11-04 10:13:00,42.2,32.0,30.30,ESE,102,2.3,2.3,67,0.00,,---,0.00,VWS V14.01,2013-11-04 15:13:00,
2013-11-04 10:18:00,42.7,32.6,30.30,ESE,102,2.3,2.3,67,0.00,,---,0.00,VWS V14.01,2013-11-04 15:18:00,
2013-11-04 10:23:00,42.9,31.6,30.30,ESE,102,2.3,2.3,64,0.00,,---,0.00,VWS V14.01,2013-11-04 15:23:00,
2013-11-04 10:28:00,43.3,32.7,30.30,ESE,102,2.3,2.3,66,0.00,,---,0.00,VWS V14.01,2013-11-04 15:28:00,
2013-11-04 10:33:00,43.3,31.9,30.30,ESE,102,2.3,2.3,64,0.00,,---,0.00,VWS V14.01,2013-11-04 15:33:00,
2013-11-04 10:38:00,43.5,31.7,30.30,ESE,102,2.3,2.3,63,0.00,,---,0.00,VWS V14.01,2013-11-04 15:38:00,
2013-11-04 10:43:00,44.0,32.6,30.30,ESE,102,2.3,2.3,64,0.00,,---,0.00,VWS V14.01,2013-11-04 15:43:00,
2013-11-04 10:48:00,44.2,32.4,30.30,ESE,102,2.3,2.3,63,0.00,,---,0.00,VWS V14.01,2013-11-04 15:48:00,
2013-11-04 10:53:00,44.9,33.1,30.30,ESE,102,2.3,2.3,63,0.00,,---,0.00,VWS V14.01,2013-11-04 15:53:00,
2013-11-04 10:58:00,45.3,33.4,30.30,ESE,102,2.3,2.3,63,0.00,,---,0.00,VWS V14.01,2013-11-04 15:58:00,
2013-11-04 11:03:00,45.6,33.0,30.30,ESE,102,2.3,2.3,61,0.00,,---,0.00,VWS V14.01,2013-11-04 16:03:00,
2013-11-04 11:08:00,46.5,33.8,30.30,ESE,102,2.3,2.3,61,0.00,,---,0.00,VWS V14.01,2013-11-04 16:08:00,
2013-11-04 11:13:00,46.7,33.2,30.30,ESE,102,2.3,2.3,59,0.00,,---,0.00,VWS V14.01,2013-11-04 16:13:00,
2013-11-04 11:19:00,46.5,33.4,30.30,ESE,102,2.3,2.3,60,0.00,,---,0.00,VWS V14.01,2013-11-04 16:19:00,
2013-11-04 11:24:00,46.3,32.0,30.27,ESE,102,2.3,2.3,57,0.00,,---,0.00,VWS V14.01,2013-11-04 16:24:00,
2013-11-04 11:29:00,46.5,32.1,30.27,ESE,102,2.3,2.3,57,0.00,,---,0.00,VWS V14.01,2013-11-04 16:29:00,
2013-11-04 11:34:00,47.4,33.0,30.27,ENE,58,4.3,13.9,57,0.00,,---,0.00,VWS V14.01,2013-11-04 16:34:00,
2013-11-04 11:39:00,49.0,34.5,30.27,SE,125,5.6,5.6,57,0.00,,---,0.00,VWS V14.01,2013-11-04 16:39:00,
2013-11-04 11:44:00,48.3,33.8,30.27,SE,125,5.6,5.6,57,0.00,,---,0.00,VWS V14.01,2013-11-04 16:44:00,
2013-11-04 11:49:00,48.1,33.2,30.27,South,170,8.3,8.3,56,0.00,,---,0.00,VWS V14.01,2013-11-04 16:49:00,
2013-11-04 11:54:00,48.7,32.8,30.27,SW,215,8.9,8.9,54,0.00,,---,0.00,VWS V14.01,2013-11-04 16:54:00,
2013-11-04 11:59:00,49.9,33.5,30.27,SW,215,8.9,8.9,53,0.00,,---,0.00,VWS V14.01,2013-11-04 16:59:00,
2013-11-04 12:04:00,51.0,34.5,30.27,SE,125,5.3,8.9,53,0.00,,---,0.00,VWS V14.01,2013-11-04 17:04:00,
2013-11-04 12:09:00,51.9,33.9,30.27,SE,125,12.9,12.9,50,0.00,,---,0.00,VWS V14.01,2013-11-04 17:09:00,
2013-11-04 12:14:00,52.6,35.0,30.27,SE,125,19.2,19.2,51,0.00,,---,0.00,VWS V14.01,2013-11-04 17:14:00,
2013-11-04 12:19:00,53.4,35.2,30.27,SE,125,16.2,16.2,50,0.00,,---,0.00,VWS V14.01,2013-11-04 17:19:00,
2013-11-04 12:24:00,52.3,33.7,30.27,South,170,5.6,5.6,49,0.00,,---,0.00,VWS V14.01,2013-11-04 17:24:00,
2013-11-04 12:29:00,53.4,34.7,30.27,South,170,5.6,5.6,49,0.00,,---,0.00,VWS V14.01,2013-11-04 17:29:00,
2013-11-04 12:34:00,51.2,33.2,30.27,South,170,5.6,5.6,50,0.00,,---,0.00,VWS V14.01,2013-11-04 17:34:00,
2013-11-04 12:39:00,50.3,31.9,30.24,South,170,5.6,5.6,49,0.00,,---,0.00,VWS V14.01,2013-11-04 17:39:00,
2013-11-04 12:44:00,50.3,31.9,30.24,South,170,5.6,5.6,49,0.00,,---,0.00,VWS V14.01,2013-11-04 17:44:00,
2013-11-04 12:49:00,50.3,32.4,30.24,South,170,5.6,5.6,50,0.00,,---,0.00,VWS V14.01,2013-11-04 17:49:00,
2013-11-04 12:54:00,50.7,32.7,30.24,South,170,5.6,5.6,50,0.00,,---,0.00,VWS V14.01,2013-11-04 17:54:00,
2013-11-04 12:59:00,52.3,33.7,30.24,South,170,15.6,16.2,49,0.00,,---,0.00,VWS V14.01,2013-11-04 17:59:00,
2013-11-04 13:04:00,53.9,34.7,30.24,SW,215,15.6,15.6,48,0.00,,---,0.00,VWS V14.01,2013-11-04 18:04:00,
2013-11-04 13:09:00,54.4,35.7,30.24,SE,125,9.6,9.6,49,0.00,,---,0.00,VWS V14.01,2013-11-04 18:09:00,
2013-11-04 13:14:00,54.1,34.3,30.24,SE,125,5.3,5.3,47,0.00,,---,0.00,VWS V14.01,2013-11-04 18:14:00,
2013-11-04 13:19:00,53.7,34.5,30.24,SE,125,15.9,15.9,48,0.00,,---,0.00,VWS V14.01,2013-11-04 18:19:00,
2013-11-04 13:24:00,52.1,32.5,30.21,SE,125,15.9,15.9,47,0.00,,---,0.00,VWS V14.01,2013-11-04 18:24:00,
2013-11-04 13:29:00,51.2,32.2,30.21,SE,125,15.9,15.9,48,0.00,,---,0.00,VWS V14.01,2013-11-04 18:29:00,
2013-11-04 13:34:00,50.8,31.9,30.21,SE,125,15.9,15.9,48,0.00,,---,0.00,VWS V14.01,2013-11-04 18:34:00,
2013-11-04 13:39:00,50.7,31.7,30.21,SE,125,15.9,15.9,48,0.00,,---,0.00,VWS V14.01,2013-11-04 18:39:00,
2013-11-04 13:44:00,50.7,31.7,30.21,NE,35,7.9,7.9,48,0.00,,---,0.00,VWS V14.01,2013-11-04 18:44:00,
2013-11-04 13:49:00,50.7,31.7,30.21,NE,35,7.9,7.9,48,0.00,,---,0.00,VWS V14.01,2013-11-04 18:49:00,
2013-11-04 13:54:00,50.5,31.5,30.21,SE,125,11.9,18.9,48,0.00,,---,0.00,VWS V14.01,2013-11-04 18:54:00,
2013-11-04 13:59:00,51.0,32.0,30.21,SE,125,5.3,14.6,48,0.00,,---,0.00,VWS V14.01,2013-11-04 18:59:00,
2013-11-04 14:04:00,51.0,32.0,30.21,North,350,8.6,8.6,48,0.00,,---,0.00,VWS V14.01,2013-11-04 19:04:00,
2013-11-04 14:10:00,50.7,31.7,30.21,North,350,8.6,8.6,48,0.00,,---,0.00,VWS V14.01,2013-11-04 19:10:00,
2013-11-04 14:15:00,50.7,31.7,30.21,North,350,8.6,8.6,48,0.00,,---,0.00,VWS V14.01,2013-11-04 19:15:00,
2013-11-04 14:20:00,50.5,31.5,30.21,North,350,8.6,8.6,48,0.00,,---,0.00,VWS V14.01,2013-11-04 19:20:00,
2013-11-04 14:25:00,50.1,31.2,30.21,North,350,8.6,8.6,48,0.00,,---,0.00,VWS V14.01,2013-11-04 19:25:00,
2013-11-04 14:30:00,50.1,31.2,30.21,North,350,8.6,8.6,48,0.00,,---,0.00,VWS V14.01,2013-11-04 19:30:00,
2013-11-04 14:35:00,49.9,30.5,30.21,North,350,8.6,8.6,47,0.00,,---,0.00,VWS V14.01,2013-11-04 19:35:00,
2013-11-04 14:40:00,49.9,30.5,30.21,North,350,8.6,8.6,47,0.00,,---,0.00,VWS V14.01,2013-11-04 19:40:00,
2013-11-04 14:45:00,49.6,30.2,30.21,SE,125,15.9,15.9,47,0.00,,---,0.00,VWS V14.01,2013-11-04 19:45:00,
2013-11-04 14:50:00,49.4,29.5,30.21,SE,125,15.9,15.9,46,0.00,,---,0.00,VWS V14.01,2013-11-04 19:50:00,
2013-11-04 14:55:00,49.4,30.0,30.21,SE,125,15.9,15.9,47,0.00,,---,0.00,VWS V14.01,2013-11-04 19:55:00,
2013-11-04 15:00:00,49.2,29.9,30.21,SE,125,15.9,15.9,47,0.00,,---,0.00,VWS V14.01,2013-11-04 20:00:00,
2013-11-04 15:05:00,49.2,30.4,30.21,SE,125,15.9,15.9,48,0.00,,---,0.00,VWS V14.01,2013-11-04 20:05:00,
2013-11-04 15:10:00,49.0,29.7,30.21,SE,125,15.9,15.9,47,0.00,,---,0.00,VWS V14.01,2013-11-04 20:10:00,
2013-11-04 15:15:00,49.0,29.7,30.21,SE,125,15.9,15.9,47,0.00,,---,0.00,VWS V14.01,2013-11-04 20:15:00,
2013-11-04 15:20:00,49.0,30.2,30.21,SE,125,15.9,15.9,48,0.00,,---,0.00,VWS V14.01,2013-11-04 20:20:00,
2013-11-04 15:25:00,48.9,30.0,30.21,SE,125,15.9,15.9,48,0.00,,---,0.00,VWS V14.01,2013-11-04 20:25:00,
2013-11-04 15:30:00,48.9,29.5,30.21,SE,125,15.9,15.9,47,0.00,,---,0.00,VWS V14.01,2013-11-04 20:30:00,
2013-11-04 15:35:00,48.9,30.0,30.21,SE,125,15.9,15.9,48,0.00,,---,0.00,VWS V14.01,2013-11-04 20:35:00,
2013-11-04 15:40:00,49.0,30.2,30.21,SE,125,15.9,15.9,48,0.00,,---,0.00,VWS V14.01,2013-11-04 20:40:00,
2013-11-04 15:45:00,49.0,30.2,30.21,South,170,8.3,8.3,48,0.00,,---,0.00,VWS V14.01,2013-11-04 20:45:00,
2013-11-04 15:50:00,49.0,30.2,30.21,South,170,8.3,8.3,48,0.00,,---,0.00,VWS V14.01,2013-11-04 20:50:00,
2013-11-04 15:55:00,49.0,30.2,30.21,South,170,8.3,8.3,48,0.00,,---,0.00,VWS V14.01,2013-11-04 20:55:00,
2013-11-04 16:00:00,48.9,30.0,30.21,South,170,8.3,8.3,48,0.00,,---,0.00,VWS V14.01,2013-11-04 21:00:00,
2013-11-04 16:05:00,48.7,29.9,30.21,South,170,8.3,8.3,48,0.00,,---,0.00,VWS V14.01,2013-11-04 21:05:00,
2013-11-04 16:10:00,48.5,29.7,30.21,South,170,8.3,8.3,48,0.00,,---,0.00,VWS V14.01,2013-11-04 21:10:00,
2013-11-04 16:15:00,48.3,29.6,30.21,South,170,8.3,8.3,48,0.00,,---,0.00,VWS V14.01,2013-11-04 21:15:00,
2013-11-04 16:20:00,48.3,29.6,30.21,South,170,8.3,8.3,48,0.00,,---,0.00,VWS V14.01,2013-11-04 21:20:00,
2013-11-04 16:25:00,48.1,29.4,30.18,South,170,8.3,8.3,48,0.00,,---,0.00,VWS V14.01,2013-11-04 21:25:00,
2013-11-04 16:30:00,48.1,29.9,30.18,South,170,8.3,8.3,49,0.00,,---,0.00,VWS V14.01,2013-11-04 21:30:00,
2013-11-04 16:35:00,48.1,29.9,30.18,South,170,8.3,8.3,49,0.00,,---,0.00,VWS V14.01,2013-11-04 21:35:00,
2013-11-04 16:41:00,48.0,29.7,30.21,South,170,8.3,8.3,49,0.00,,---,0.00,VWS V14.01,2013-11-04 21:41:00,
2013-11-04 16:46:00,48.0,29.7,30.21,South,170,8.3,8.3,49,0.00,,---,0.00,VWS V14.01,2013-11-04 21:46:00,
2013-11-04 16:51:00,47.8,29.6,30.21,South,170,8.3,8.3,49,0.00,,---,0.00,VWS V14.01,2013-11-04 21:51:00,
2013-11-04 16:56:00,47.8,29.6,30.18,South,170,8.3,8.3,49,0.00,,---,0.00,VWS V14.01,2013-11-04 21:56:00,
2013-11-04 17:01:00,47.6,29.4,30.18,South,170,8.3,8.3,49,0.00,,---,0.00,VWS V14.01,2013-11-04 22:01:00,
2013-11-04 17:06:00,47.6,29.9,30.18,South,170,8.3,8.3,50,0.00,,---,0.00,VWS V14.01,2013-11-04 22:06:00,
2013-11-04 17:11:00,47.6,29.9,30.18,South,170,8.3,8.3,50,0.00,,---,0.00,VWS V14.01,2013-11-04 22:11:00,
2013-11-04 17:16:00,47.6,29.9,30.18,South,170,8.3,8.3,50,0.00,,---,0.00,VWS V14.01,2013-11-04 22:16:00,
2013-11-04 17:21:00,47.4,30.2,30.18,South,170,8.3,8.3,51,0.00,,---,0.00,VWS V14.01,2013-11-04 22:21:00,
2013-11-04 17:26:00,47.4,30.2,30.18,South,170,8.3,8.3,51,0.00,,---,0.00,VWS V14.01,2013-11-04 22:26:00,
2013-11-04 17:31:00,47.4,30.2,30.18,South,170,14.2,14.2,51,0.00,,---,0.00,VWS V14.01,2013-11-04 22:31:00,
2013-11-04 17:36:00,47.4,30.2,30.18,South,170,14.2,14.2,51,0.00,,---,0.00,VWS V14.01,2013-11-04 22:36:00,
2013-11-04 17:41:00,47.4,30.2,30.18,SE,125,6.0,6.0,51,0.00,,---,0.00,VWS V14.01,2013-11-04 22:41:00,
2013-11-04 17:46:00,47.4,30.2,30.18,SE,125,14.9,14.9,51,0.00,,---,0.00,VWS V14.01,2013-11-04 22:46:00,
2013-11-04 17:51:00,47.4,30.2,30.18,SE,125,4.0,8.9,51,0.00,,---,0.00,VWS V14.01,2013-11-04 22:51:00,
2013-11-04 17:56:00,47.2,30.5,30.18,SW,215,5.0,5.0,52,0.00,,---,0.00,VWS V14.01,2013-11-04 22:56:00,
2013-11-04 18:01:00,47.4,30.7,30.18,SE,125,14.9,14.9,52,0.00,,---,0.00,VWS V14.01,2013-11-04 23:01:00,
2013-11-04 18:06:00,47.4,30.7,30.18,SE,125,12.6,12.6,52,0.00,,---,0.00,VWS V14.01,2013-11-04 23:06:00,
2013-11-04 18:11:00,47.4,30.7,30.18,SE,125,16.2,16.2,52,0.00,,---,0.00,VWS V14.01,2013-11-04 23:11:00,
2013-11-04 18:16:00,47.2,30.5,30.18,West,260,8.9,8.9,52,0.00,,---,0.00,VWS V14.01,2013-11-04 23:16:00,
2013-11-04 18:21:00,47.2,31.0,30.18,SE,125,10.6,10.6,53,0.00,,---,0.00,VWS V14.01,2013-11-04 23:21:00,
2013-11-04 18:26:00,47.2,31.0,30.18,SE,125,10.6,10.6,53,0.00,,---,0.00,VWS V14.01,2013-11-04 23:26:00,
2013-11-04 18:31:00,47.1,30.8,30.18,SE,125,10.6,10.6,53,0.00,,---,0.00,VWS V14.01,2013-11-04 23:31:00,
2013-11-04 18:36:00,47.1,31.3,30.18,SE,125,7.3,7.3,54,0.00,,---,0.00,VWS V14.01,2013-11-04 23:36:00,
2013-11-04 18:41:00,47.1,31.3,30.18,South,170,5.6,6.3,54,0.00,,---,0.00,VWS V14.01,2013-11-04 23:41:00,
2013-11-04 18:46:00,47.1,31.3,30.18,SE,125,6.3,6.3,54,0.00,,---,0.00,VWS V14.01,2013-11-04 23:46:00,
2013-11-04 18:51:00,47.1,31.3,30.18,East,80,11.3,11.3,54,0.00,,---,0.00,VWS V14.01,2013-11-04 23:51:00,
2013-11-04 18:56:00,46.9,31.6,30.18,East,80,8.6,8.6,55,0.00,,---,0.00,VWS V14.01,2013-11-04 23:56:00,
2013-11-04 19:01:00,46.7,31.4,30.18,SE,125,8.9,8.9,55,0.00,,---,0.00,VWS V14.01,2013-11-05 00:01:00,
2013-11-04 19:06:00,46.3,31.1,30.18,SE,125,5.0,6.3,55,0.00,,---,0.00,VWS V14.01,2013-11-05 00:06:00,
2013-11-04 19:11:00,46.2,30.9,30.18,SW,215,4.0,8.6,55,0.00,,---,0.00,VWS V14.01,2013-11-05 00:11:00,
2013-11-04 19:16:00,46.2,31.4,30.18,North,350,8.3,8.3,56,0.00,,---,0.00,VWS V14.01,2013-11-05 00:16:00,
2013-11-04 19:21:00,46.2,31.4,30.18,SE,125,8.6,8.6,56,0.00,,---,0.00,VWS V14.01,2013-11-05 00:21:00,
2013-11-04 19:26:00,46.2,31.4,30.21,SE,125,8.6,8.6,56,0.00,,---,0.00,VWS V14.01,2013-11-05 00:26:00,
2013-11-04 19:31:00,46.0,31.2,30.21,South,170,9.3,9.3,56,0.00,,---,0.00,VWS V14.01,2013-11-05 00:31:00,
2013-11-04 19:36:00,46.0,31.6,30.21,SE,125,4.0,4.0,57,0.00,,---,0.00,VWS V14.01,2013-11-05 00:36:00,
2013-11-04 19:42:00,46.2,31.8,30.18,SE,125,9.6,9.6,57,0.00,,---,0.00,VWS V14.01,2013-11-05 00:42:00,
2013-11-04 19:47:00,46.2,31.8,30.18,SE,125,9.6,9.6,57,0.00,,---,0.00,VWS V14.01,2013-11-05 00:47:00,
2013-11-04 19:52:00,46.2,31.8,30.18,South,170,6.3,6.3,57,0.00,,---,0.00,VWS V14.01,2013-11-05 00:52:00,
2013-11-04 19:57:00,46.2,32.2,30.21,SE,125,8.9,8.9,58,0.00,,---,0.00,VWS V14.01,2013-11-05 00:57:00,
2013-11-04 20:02:00,46.3,32.4,30.21,South,170,5.6,8.9,58,0.00,,---,0.00,VWS V14.01,2013-11-05 01:02:00,
2013-11-04 20:07:00,46.3,32.4,30.21,South,170,8.3,8.3,58,0.00,,---,0.00,VWS V14.01,2013-11-05 01:07:00,
2013-11-04 20:12:00,46.5,32.5,30.21,South,170,8.3,8.3,58,0.00,,---,0.00,VWS V14.01,2013-11-05 01:12:00,
2013-11-04 20:17:00,46.5,33.0,30.21,South,170,8.3,8.3,59,0.00,,---,0.00,VWS V14.01,2013-11-05 01:17:00,
2013-11-04 20:22:00,46.7,33.2,30.21,SE,125,5.3,5.3,59,0.00,,---,0.00,VWS V14.01,2013-11-05 01:22:00,
2013-11-04 20:27:00,46.7,33.2,30.21,SE,125,5.3,5.3,59,0.00,,---,0.00,VWS V14.01,2013-11-05 01:27:00,
2013-11-04 20:32:00,46.7,33.2,30.21,South,170,4.6,4.6,59,0.00,,---,0.00,VWS V14.01,2013-11-05 01:32:00,
2013-11-04 20:37:00,46.7,33.2,30.21,South,170,6.3,6.3,59,0.00,,---,0.00,VWS V14.01,2013-11-05 01:37:00,
2013-11-04 20:43:00,46.7,33.6,30.21,South,170,2.3,2.3,60,0.00,,---,0.00,VWS V14.01,2013-11-05 01:43:00,
2013-11-04 20:48:00,46.7,33.6,30.21,SE,125,5.0,5.0,60,0.00,,---,0.00,VWS V14.01,2013-11-05 01:48:00,
2013-11-04 20:53:00,46.7,33.6,30.21,SE,125,5.0,5.0,60,0.00,,---,0.00,VWS V14.01,2013-11-05 01:53:00,
2013-11-04 20:58:00,46.7,34.0,30.21,SE,125,5.0,5.0,61,0.00,,---,0.00,VWS V14.01,2013-11-05 01:58:00,
2013-11-04 21:03:00,46.7,34.0,30.21,South,170,7.0,7.0,61,0.00,,---,0.00,VWS V14.01,2013-11-05 02:03:00,
2013-11-04 21:08:00,46.7,34.0,30.21,South,170,7.0,7.0,61,0.00,,---,0.00,VWS V14.01,2013-11-05 02:08:00,
2013-11-04 21:13:00,46.5,33.8,30.21,South,170,7.0,7.0,61,0.00,,---,0.00,VWS V14.01,2013-11-05 02:13:00,
2013-11-04 21:18:00,46.3,34.0,30.21,SE,125,4.3,4.3,62,0.00,,---,0.00,VWS V14.01,2013-11-05 02:18:00,
2013-11-04 21:23:00,46.2,33.9,30.21,SE,125,4.3,4.3,62,0.00,,---,0.00,VWS V14.01,2013-11-05 02:23:00,
2013-11-04 21:28:00,46.0,33.7,30.21,SE,125,6.0,7.0,62,0.00,,---,0.00,VWS V14.01,2013-11-05 02:28:00,
2013-11-04 21:33:00,45.8,33.9,30.21,South,170,3.0,4.6,63,0.00,,---,0.00,VWS V14.01,2013-11-05 02:33:00,
2013-11-04 21:38:00,45.6,34.2,30.21,South,170,4.3,4.3,64,0.00,,---,0.00,VWS V14.01,2013-11-05 02:38:00,
2013-11-04 21:43:00,45.6,34.2,30.21,South,170,3.0,4.3,64,0.00,,---,0.00,VWS V14.01,2013-11-05 02:43:00,
2013-11-04 21:48:00,45.3,33.8,30.21,South,170,5.0,5.0,64,0.00,,---,0.00,VWS V14.01,2013-11-05 02:48:00,
2013-11-04 21:53:00,45.3,34.2,30.21,South,170,5.6,5.6,65,0.00,,---,0.00,VWS V14.01,2013-11-05 02:53:00,
2013-11-04 21:58:00,45.3,34.2,30.21,SE,125,4.3,4.3,65,0.00,,---,0.00,VWS V14.01,2013-11-05 02:58:00,
2013-11-04 22:03:00,45.3,34.6,30.21,SE,125,4.6,6.0,66,0.00,,---,0.00,VWS V14.01,2013-11-05 03:03:00,
2013-11-04 22:08:00,45.3,34.6,30.21,South,170,7.9,7.9,66,0.00,,---,0.00,VWS V14.01,2013-11-05 03:08:00,
2013-11-04 22:13:00,45.3,35.0,30.21,South,170,7.9,7.9,67,0.00,,---,0.00,VWS V14.01,2013-11-05 03:13:00,
2013-11-04 22:18:00,45.3,35.0,30.21,SE,125,7.0,7.0,67,0.00,,---,0.00,VWS V14.01,2013-11-05 03:18:00,
2013-11-04 22:23:00,45.6,35.7,30.21,SE,125,4.0,4.0,68,0.00,,---,0.00,VWS V14.01,2013-11-05 03:23:00,
2013-11-04 22:28:00,45.6,35.7,30.21,SE,125,4.0,4.0,68,0.00,,---,0.00,VWS V14.01,2013-11-05 03:28:00,
2013-11-04 22:33:00,45.6,35.7,30.21,SE,125,4.0,4.0,68,0.00,,---,0.00,VWS V14.01,2013-11-05 03:33:00,
2013-11-04 22:38:00,45.8,35.8,30.21,South,170,5.3,5.3,68,0.00,,---,0.00,VWS V14.01,2013-11-05 03:38:00,
2013-11-04 22:43:00,45.8,36.2,30.21,South,170,5.3,5.3,69,0.00,,---,0.00,VWS V14.01,2013-11-05 03:43:00,
2013-11-04 22:48:00,46.0,36.4,30.21,South,170,3.6,4.3,69,0.00,,---,0.00,VWS V14.01,2013-11-05 03:48:00,
2013-11-04 22:53:00,46.0,36.4,30.21,South,170,3.6,3.6,69,0.00,,---,0.00,VWS V14.01,2013-11-05 03:53:00,
2013-11-04 22:58:00,46.2,36.6,30.21,South,170,5.3,5.3,69,0.00,,---,0.00,VWS V14.01,2013-11-05 03:58:00,
2013-11-04 23:03:00,46.5,36.9,30.21,South,170,6.0,6.0,69,0.00,,---,0.00,VWS V14.01,2013-11-05 04:03:00,
2013-11-04 23:09:00,46.7,37.1,30.21,South,170,6.0,6.0,69,0.00,,---,0.00,VWS V14.01,2013-11-05 04:09:00,
2013-11-04 23:14:00,47.1,37.8,30.21,South,170,4.0,4.0,70,0.00,,---,0.00,VWS V14.01,2013-11-05 04:14:00,
2013-11-04 23:19:00,47.2,38.0,30.21,South,170,4.0,4.0,70,0.00,,---,0.00,VWS V14.01,2013-11-05 04:19:00,
2013-11-04 23:24:00,47.2,38.0,30.21,SW,215,3.3,3.3,70,0.00,,---,0.00,VWS V14.01,2013-11-05 04:24:00,
2013-11-04 23:29:00,47.2,38.0,30.21,South,170,3.6,3.6,70,0.00,,---,0.00,VWS V14.01,2013-11-05 04:29:00,
2013-11-04 23:34:00,47.4,37.8,30.21,SW,215,5.6,8.3,69,0.00,,---,0.00,VWS V14.01,2013-11-05 04:34:00,
2013-11-04 23:39:00,47.6,38.0,30.21,South,170,5.3,9.3,69,0.00,,---,0.00,VWS V14.01,2013-11-05 04:39:00,
2013-11-04 23:44:00,47.6,38.0,30.21,South,170,5.3,5.3,69,0.00,,---,0.00,VWS V14.01,2013-11-05 04:44:00,
2013-11-04 23:49:00,47.8,38.5,30.21,South,170,5.6,5.6,70,0.00,,---,0.00,VWS V14.01,2013-11-05 04:49:00,
2013-11-04 23:54:00,48.0,38.3,30.21,East,80,4.3,4.3,69,0.00,,---,0.00,VWS V14.01,2013-11-05 04:54:00,
2013-11-04 23:59:00,48.0,38.3,30.21,West,260,3.6,3.6,69,0.00,,---,0.00,VWS V14.01,2013-11-05 04:59:00,